Regional Weather Roundup
Issued by NWS State College, PA

Home | Current Version | Previous Version | Graphics & Text | Print | Product List | Glossary On
Versions: 1 2 3 4 5 6 7 8 9 10 11 12 13 14 15 16 17 18 19 20 21 22 23 24 25 26 27 28 29 30 31 32 33 34 35 36 37 38 39 40 41 42 43 44 45 46 47 48 49 50
000
ASUS41 KCTP 260103
RWRCTP

REGIONAL WEATHER ROUNDUP
NATIONAL WEATHER SERVICE STATE COLLEGE PA
900 PM EDT WED APR 25 2018

Note: "fair" indicates few or no clouds below 12,000 feet with no
significant weather and/or obstructions to visibility.

* = STATION THAT DOES NOT REPORT PRECIPITATION /E.G. RAIN...SNOW...ETC/
    THUNDER OR FOG.

PAZ002>004-007>009-013>016-020>023-029>032-260200-
WESTERN PENNSYLVANIA

CITY           SKY/WX    TMP DP  RH WIND       PRES   REMARKS
ERIE           CLOUDY    41  37  86 W13       29.90R
MEADVILLE      CLOUDY    39  38  96 NW8       29.90R
FRANKLIN*      CLOUDY    41  38  89 VRB6      29.88R
NEW CASTLE     CLOUDY    44  41  89 NW13      29.92R
BEAVER COUNTY  CLOUDY    45  39  81 NW8       29.89S
BUTLER*        CLOUDY    45  40  82 NW9       29.90R
PITTSBURGH INT MOCLDY    47  40  76 NW12      29.90R
PITTSBURGH     CLOUDY    47  42  83 NW13G24   29.88R
INDIANA*       CLOUDY    48  45  87 NW9G16    29.89R
LATROBE        NOT AVBL
WASHINGTON CO* CLOUDY    48  41  76 NW7       29.94R
$$

PAZ004>006-010>012-017>019-024>028-033>037-041-042-045-046-049>053-260200-
CENTRAL PENNSYLVANIA

CITY           SKY/WX    TMP DP  RH WIND       PRES   REMARKS
BRADFORD       CLOUDY    45  41  86 NW13G24   29.80R
DUBOIS         CLOUDY    45  41  86 W15G22    29.82R
CLEARFIELD     CLOUDY    51  46  83 NW16G24   29.79R
JOHNSTOWN      CLOUDY    48  44  86 NW20      29.81R
ALTOONA        CLOUDY    55  48  77 NW18G24   29.79R
STATE COLLEGE  CLOUDY    55  48  76 W9G18     29.76R
WILLIAMSPORT   CLOUDY    58  53  84 W6        29.71R
SELINSGROVE    CLOUDY    56  54  93 CALM      29.72R
FT INDIANTOWN  CLOUDY    59  55  88 CALM      29.71R
CAPITAL CITY   CLOUDY    60  56  86 W5        29.71R
HARRISBURG     LGT RAIN  57  55  93 CALM      29.71R
YORK           CLOUDY    56  55  97 CALM      29.72R
$$

PAZ038>040-043-044-047-048-054-055-060>062-067>071-260200-
EASTERN PENNSYLVANIA

CITY           SKY/WX    TMP DP  RH WIND       PRES   REMARKS
SCRANTON       RAIN      56  56 100 N6        29.69S FOG
MOUNT POCONO   LGT RAIN  54  54 100 W5        29.68F FOG
ALLENTOWN      CLOUDY    60  57  89 W5        29.68R
QUAKERTOWN*    CLOUDY    59  59 100 NW5       29.69R
READING        CLOUDY    60  60 100 W3        29.69R FOG
LANCASTER      CLOUDY    60  56  86 NW6       29.70R
COATESVILLE    CLOUDY    59  57  94 NW9       29.71R FOG
POTTSTOWN      CLOUDY    59  58  96 NW5       29.70R
BLUE BELL      CLOUDY    59  59 100 NW3       29.69S
DOYLESTOWN     CLOUDY    60  58  92 CALM      29.67R
WILLOW GROVE   NOT AVBL
NORTH PHILA    CLOUDY    64  59  83 N6        29.67S
PHILADELPHIA   CLOUDY    63  59  87 NW10      29.67R
$$




USA.gov is the U.S. government's official web portal to all federal, state and local government web resources and services.